| time (UTC) | temp F | wind direction | speed knots | gust knots | rain 1hr in | rain 24hr in | rain mn in | humidity % | barometer mb |
| 20260505061021 | 59 | 339 | 0.0 | 1.7 | 0.00 | 0.00 | 0.00 | 86 | 1017.3 |
| 20260505060518 | 59 | 272 | 2.6 | 2.6 | 0.00 | 0.00 | 0.00 | 86 | 1017.3 |
| 20260505060014 | 59 | 318 | 0.9 | 1.7 | 0.00 | 0.00 | 0.00 | 86 | 1017.3 |
| 20260505055510 | 59 | 335 | 0.0 | 0.9 | 0.00 | 0.00 | 0.00 | 86 | 1017.3 |
| 20260505055007 | 59 | 258 | 0.9 | 1.7 | 0.00 | 0.00 | 0.00 | 85 | 1017.3 |
| 20260505054504 | 59 | 331 | 0.0 | 2.6 | 0.00 | 0.00 | 0.00 | 85 | 1017.3 |
| 20260505054002 | 59 | 297 | 1.7 | 1.7 | 0.00 | 0.00 | 0.00 | 84 | 1017.6 |
| 20260505053459 | 59 | 323 | 0.0 | 0.0 | 0.00 | 0.00 | 0.00 | 84 | 1017.6 |
| 20260505052955 | 59 | 328 | 0.0 | 0.0 | 0.00 | 0.00 | 0.00 | 84 | 1017.3 |
| 20260505052453 | 59 | 258 | 0.0 | 0.9 | 0.00 | 0.00 | 0.00 | 84 | 1017.3 |
| 20260505051950 | 59 | 313 | 0.9 | 1.7 | 0.00 | 0.00 | 0.00 | 84 | 1017.3 |
| 20260505051446 | 59 | 303 | 0.9 | 0.9 | 0.00 | 0.00 | 0.00 | 84 | 1017.3 |
| 20260505050945 | 59 | 325 | 0.0 | 0.0 | 0.00 | 0.00 | 0.00 | 84 | 1017.6 |
| 20260505050443 | 59 | 317 | 0.0 | 1.7 | 0.00 | 0.00 | 0.00 | 84 | 1017.6 |
| 20260505041410 | 60 | 305 | 0.9 | 0.9 | 0.00 | 0.00 | 0.00 | 82 | 1017.6 |
| 20260505040907 | 60 | 281 | 0.9 | 1.7 | 0.00 | 0.00 | 0.00 | 82 | 1017.6 |
| 20260505040405 | 60 | 326 | 0.9 | 1.7 | 0.00 | 0.00 | 0.00 | 81 | 1017.6 |
| 20260505035901 | 60 | 334 | 0.9 | 1.7 | 0.00 | 0.00 | 0.00 | 80 | 1017.6 |
| 20260505035357 | 60 | 334 | 0.9 | 1.7 | 0.00 | 0.00 | 0.00 | 79 | 1017.6 |
| 20260505034855 | 60 | 296 | 1.7 | 2.6 | 0.00 | 0.00 | 0.00 | 78 | 1017.6 |
| 20260505034351 | 60 | 305 | 0.9 | 1.7 | 0.00 | 0.00 | 0.00 | 78 | 1017.6 |
| 20260505033848 | 60 | 290 | 2.6 | 3.5 | 0.00 | 0.00 | 0.00 | 77 | 1017.3 |
| 20260505033345 | 60 | 217 | 1.7 | 3.5 | 0.00 | 0.00 | 0.00 | 77 | 1017.3 |
| 20260505032844 | 60 | 304 | 1.7 | 3.5 | 0.00 | 0.00 | 0.00 | 77 | 1017.3 |
| 20260505032340 | 60 | 331 | 0.0 | 1.7 | 0.00 | 0.00 | 0.00 | 77 | 1017.6 |
| 20260505031837 | 60 | 359 | 0.9 | 1.7 | 0.00 | 0.00 | 0.00 | 75 | 1017.3 |
| 20260505031333 | 60 | 342 | 0.0 | 5.2 | 0.00 | 0.00 | 0.00 | 75 | 1017.3 |
| 20260505030831 | 60 | 326 | 0.9 | 2.6 | 0.00 | 0.00 | 0.00 | 75 | 1017.3 |
| 20260505030326 | 60 | 64 | 0.0 | 1.7 | 0.00 | 0.00 | 0.00 | 75 | 1017.3 |
| 20260505025822 | 60 | 301 | 0.9 | 2.6 | 0.00 | 0.00 | 0.00 | 75 | 1017.3 |
| 20260505025320 | 60 | 265 | 1.7 | 5.2 | 0.00 | 0.00 | 0.00 | 74 | 1017.0 |
| 20260505024818 | 60 | 6 | 1.7 | 3.5 | 0.00 | 0.00 | 0.00 | 75 | 1017.0 |
| 20260505024315 | 60 | 325 | 0.9 | 2.6 | 0.00 | 0.00 | 0.00 | 74 | 1017.0 |
| 20260505023813 | 60 | 298 | 3.5 | 5.2 | 0.00 | 0.00 | 0.00 | 75 | 1017.0 |
| 20260505023309 | 60 | 272 | 2.6 | 6.1 | 0.00 | 0.00 | 0.00 | 74 | 1017.0 |
| 20260505022807 | 61 | 341 | 0.9 | 3.5 | 0.00 | 0.00 | 0.00 | 74 | 1017.0 |
| 20260505022304 | 60 | 265 | 2.6 | 5.2 | 0.00 | 0.00 | 0.00 | 74 | 1017.0 |
| 20260505021801 | 61 | 293 | 1.7 | 5.2 | 0.00 | 0.00 | 0.00 | 75 | 1017.0 |
| 20260505021257 | 61 | 321 | 3.5 | 5.2 | 0.00 | 0.00 | 0.00 | 76 | 1017.3 |
| 20260505020753 | 61 | 132 | 4.3 | 6.1 | 0.00 | 0.00 | 0.00 | 76 | 1017.0 |
| 20260505020248 | 61 | 263 | 3.5 | 6.1 | 0.00 | 0.00 | 0.00 | 76 | 1017.0 |
| 20260505015746 | 61 | 161 | 3.5 | 6.1 | 0.00 | 0.00 | 0.00 | 76 | 1017.0 |
| 20260505015243 | 61 | 261 | 3.5 | 6.1 | 0.00 | 0.00 | 0.00 | 77 | 1017.0 |
| 20260505014740 | 61 | 232 | 3.5 | 5.2 | 0.00 | 0.00 | 0.00 | 78 | 1017.0 |
| 20260505014237 | 62 | 256 | 3.5 | 5.2 | 0.00 | 0.00 | 0.00 | 78 | 1017.0 |
| 20260505013734 | 61 | 222 | 3.5 | 6.1 | 0.00 | 0.00 | 0.00 | 78 | 1017.0 |
| 20260505013231 | 62 | 284 | 4.3 | 7.0 | 0.00 | 0.00 | 0.00 | 78 | 1017.0 |
| 20260505012729 | 62 | 250 | 2.6 | 5.2 | 0.00 | 0.00 | 0.00 | 76 | 1017.6 |
| 20260505012226 | 62 | 317 | 2.6 | 3.5 | 0.00 | 0.00 | 0.00 | 76 | 1017.3 |
| 20260505011722 | 62 | 215 | 3.5 | 7.0 | 0.00 | 0.00 | 0.00 | 75 | 1017.3 |
| 20260505011219 | 62 | 302 | 0.9 | 2.6 | 0.00 | 0.00 | 0.00 | 74 | 1017.3 |
| 20260505010714 | 62 | 251 | 3.5 | 6.1 | 0.00 | 0.00 | 0.00 | 73 | 1017.3 |
| 20260505010211 | 62 | 295 | 1.7 | 7.0 | 0.00 | 0.00 | 0.00 | 73 | 1017.3 |
| 20260505005708 | 62 | 208 | 0.9 | 7.8 | 0.00 | 0.00 | 0.00 | 72 | 1017.3 |
| 20260505005205 | 63 | 261 | 0.9 | 5.2 | 0.00 | 0.00 | 0.00 | 72 | 1017.3 |
| 20260505004702 | 63 | 333 | 0.0 | 2.6 | 0.00 | 0.00 | 0.00 | 70 | 1017.6 |
| 20260505004159 | 63 | 255 | 1.7 | 7.0 | 0.00 | 0.00 | 0.00 | 71 | 1017.3 |
| 20260505003656 | 63 | 336 | 1.7 | 7.8 | 0.00 | 0.00 | 0.00 | 74 | 1017.3 |
| 20260505003153 | 63 | 227 | 4.3 | 7.8 | 0.00 | 0.00 | 0.00 | 73 | 1017.3 |
| 20260505002649 | 63 | 316 | 1.7 | 5.2 | 0.00 | 0.00 | 0.00 | 73 | 1017.3 |
| 20260505002148 | 63 | 306 | 4.3 | 7.0 | 0.00 | 0.00 | 0.00 | 71 | 1017.6 |
| 20260505001644 | 63 | 304 | 2.6 | 5.2 | 0.00 | 0.00 | 0.00 | 73 | 1017.3 |
| 20260505001142 | 63 | 204 | 5.2 | 7.0 | 0.00 | 0.00 | 0.00 | 73 | 1017.3 |
| 20260505000638 | 63 | 202 | 2.6 | 7.0 | 0.00 | 0.00 | 0.00 | 74 | 1017.3 |
| 20260505000137 | 63 | 227 | 3.5 | 5.2 | 0.00 | 0.00 | 0.00 | 74 | 1017.3 |
| 20260504235632 | 63 | 268 | 3.5 | 6.1 | 0.00 | 0.00 | 0.00 | 75 | 1017.3 |
| 20260504235129 | 63 | 220 | 4.3 | 9.6 | 0.00 | 0.00 | 0.00 | 76 | 1017.3 |
| 20260504234626 | 64 | 235 | 3.5 | 8.7 | 0.00 | 0.00 | 0.00 | 74 | 1017.0 |
| 20260504234124 | 65 | 243 | 0.9 | 5.2 | 0.00 | 0.00 | 0.00 | 72 | 1017.0 |
| 20260504233619 | 64 | 246 | 3.5 | 7.8 | 0.00 | 0.00 | 0.00 | 73 | 1017.0 |
| 20260504233115 | 64 | 319 | 1.7 | 7.8 | 0.00 | 0.00 | 0.00 | 74 | 1017.0 |
| 20260504232613 | 64 | 253 | 5.2 | 8.7 | 0.00 | 0.00 | 0.00 | 74 | 1017.3 |
| 20260504232110 | 65 | 269 | 5.2 | 7.8 | 0.00 | 0.00 | 0.00 | 73 | 1017.0 |
| 20260504231607 | 65 | 318 | 2.6 | 6.1 | 0.00 | 0.00 | 0.00 | 74 | 1017.0 |
| 20260504231103 | 66 | 191 | 1.7 | 7.0 | 0.00 | 0.00 | 0.00 | 71 | 1017.3 |
| 20260504230559 | 66 | 280 | 3.5 | 7.8 | 0.00 | 0.00 | 0.00 | 72 | 1017.6 |
| 20260504230058 | 66 | 251 | 2.6 | 6.1 | 0.00 | 0.00 | 0.00 | 71 | 1017.6 |
| 20260504225555 | 66 | 210 | 0.9 | 2.6 | 0.00 | 0.00 | 0.00 | 71 | 1017.3 |
| 20260504225052 | 67 | 194 | 1.7 | 2.6 | 0.00 | 0.00 | 0.00 | 68 | 1017.3 |
| 20260504224549 | 66 | 312 | 3.5 | 3.5 | 0.00 | 0.00 | 0.00 | 69 | 1017.6 |
| 20260504224046 | 66 | 284 | 2.6 | 7.0 | 0.00 | 0.00 | 0.00 | 69 | 1017.3 |
| 20260504223543 | 66 | 319 | 2.6 | 5.2 | 0.00 | 0.00 | 0.00 | 70 | 1017.6 |
| 20260504223038 | 67 | 298 | 1.7 | 5.2 | 0.00 | 0.00 | 0.00 | 68 | 1017.6 |
| 20260504222536 | 66 | 233 | 2.6 | 7.0 | 0.00 | 0.00 | 0.00 | 70 | 1017.6 |
| 20260504222033 | 66 | 223 | 4.3 | 8.7 | 0.00 | 0.00 | 0.00 | 71 | 1017.6 |
| 20260504221530 | 67 | 205 | 5.2 | 7.8 | 0.00 | 0.00 | 0.00 | 68 | 1018.0 |
| 20260504221027 | 66 | 247 | 4.3 | 7.8 | 0.00 | 0.00 | 0.00 | 69 | 1017.6 |
| 20260504220523 | 67 | 235 | 3.5 | 6.1 | 0.00 | 0.00 | 0.00 | 69 | 1017.6 |
| 20260504220021 | 67 | 243 | 1.7 | 5.2 | 0.00 | 0.00 | 0.00 | 68 | 1018.3 |
| 20260504215517 | 66 | 330 | 3.5 | 7.0 | 0.00 | 0.00 | 0.00 | 69 | 1018.0 |
| 20260504215014 | 66 | 264 | 4.3 | 7.8 | 0.00 | 0.00 | 0.00 | 68 | 1018.3 |
| 20260504214510 | 66 | 208 | 5.2 | 6.1 | 0.00 | 0.00 | 0.00 | 67 | 1018.3 |
| 20260504214006 | 66 | 317 | 2.6 | 8.7 | 0.00 | 0.00 | 0.00 | 69 | 1018.3 |
| 20260504213503 | 66 | 273 | 3.5 | 7.0 | 0.00 | 0.00 | 0.00 | 67 | 1018.3 |
| 20260504213001 | 65 | 304 | 5.2 | 8.7 | 0.00 | 0.00 | 0.00 | 68 | 1018.3 |
| 20260504212456 | 66 | 258 | 3.5 | 9.6 | 0.00 | 0.00 | 0.00 | 66 | 1018.3 |
| 20260504211954 | 65 | 314 | 2.6 | 7.8 | 0.00 | 0.00 | 0.00 | 67 | 1018.7 |
| 20260504211450 | 66 | 224 | 3.5 | 7.0 | 0.00 | 0.00 | 0.00 | 66 | 1018.3 |
| 20260504210948 | 67 | 277 | 2.6 | 7.8 | 0.00 | 0.00 | 0.00 | 64 | 1018.3 |
| 20260504210444 | 66 | 221 | 2.6 | 3.5 | 0.00 | 0.00 | 0.00 | 65 | 1018.7 |
| 20260504205941 | 66 | 275 | 4.3 | 6.1 | 0.00 | 0.00 | 0.00 | 64 | 1018.3 |
| 20260504205439 | 66 | 290 | 3.5 | 7.0 | 0.00 | 0.00 | 0.00 | 64 | 1018.3 |
| 20260504204937 | 65 | 358 | 5.2 | 7.8 | 0.00 | 0.00 | 0.00 | 66 | 1018.7 |
| 20260504204435 | 65 | 225 | 6.1 | 8.7 | 0.00 | 0.00 | 0.00 | 65 | 1018.3 |
| 20260504203934 | 65 | 266 | 3.5 | 9.6 | 0.00 | 0.00 | 0.00 | 63 | 1018.3 |
| 20260504203431 | 66 | 234 | 5.2 | 7.0 | 0.00 | 0.00 | 0.00 | 62 | 1018.7 |
| 20260504202927 | 65 | 315 | 1.7 | 7.0 | 0.00 | 0.00 | 0.00 | 65 | 1018.3 |
| 20260504202424 | 65 | 244 | 5.2 | 7.8 | 0.00 | 0.00 | 0.00 | 65 | 1018.3 |
| 20260504201920 | 66 | 306 | 3.5 | 7.8 | 0.00 | 0.00 | 0.00 | 64 | 1018.3 |
| 20260504201418 | 67 | 248 | 6.1 | 8.7 | 0.00 | 0.00 | 0.00 | 62 | 1018.3 |
| 20260504200915 | 67 | 196 | 2.6 | 7.0 | 0.00 | 0.00 | 0.00 | 61 | 1018.3 |
| 20260504200412 | 67 | 279 | 3.5 | 7.0 | 0.00 | 0.00 | 0.00 | 61 | 1018.7 |
| 20260504195908 | 67 | 285 | 2.6 | 6.1 | 0.00 | 0.00 | 0.00 | 61 | 1018.3 |
| 20260504195404 | 67 | 245 | 3.5 | 8.7 | 0.00 | 0.00 | 0.00 | 59 | 1018.3 |
| 20260504194901 | 67 | 300 | 2.6 | 6.1 | 0.00 | 0.00 | 0.00 | 61 | 1018.3 |
| 20260504194357 | 66 | 259 | 4.3 | 6.1 | 0.00 | 0.00 | 0.00 | 61 | 1018.3 |
| 20260504193853 | 67 | 221 | 3.5 | 6.1 | 0.00 | 0.00 | 0.00 | 61 | 1018.7 |
| 20260504193350 | 66 | 87 | 3.5 | 7.8 | 0.00 | 0.00 | 0.00 | 61 | 1018.3 |
| 20260504192849 | 67 | 131 | 2.6 | 6.1 | 0.00 | 0.00 | 0.00 | 62 | 1018.7 |
| 20260504192346 | 67 | 244 | 5.2 | 7.0 | 0.00 | 0.00 | 0.00 | 62 | 1018.7 |
| 20260504191844 | 67 | 213 | 3.5 | 6.1 | 0.00 | 0.00 | 0.00 | 64 | 1018.7 |
| 20260504191342 | 67 | 224 | 3.5 | 7.0 | 0.00 | 0.00 | 0.00 | 63 | 1018.3 |
| 20260504190837 | 67 | 324 | 2.6 | 6.1 | 0.00 | 0.00 | 0.00 | 62 | 1018.3 |
| 20260504190333 | 66 | 258 | 1.7 | 3.5 | 0.00 | 0.00 | 0.00 | 63 | 1018.7 |
| 20260504185830 | 66 | 314 | 3.5 | 7.0 | 0.00 | 0.00 | 0.00 | 64 | 1018.3 |
| 20260504185327 | 66 | 297 | 1.7 | 6.1 | 0.00 | 0.00 | 0.00 | 64 | 1018.7 |
| 20260504184823 | 66 | 230 | 1.7 | 5.2 | 0.00 | 0.00 | 0.00 | 61 | 1018.3 |
| 20260504184319 | 65 | 266 | 6.1 | 7.8 | 0.00 | 0.00 | 0.00 | 66 | 1018.7 |
| 20260504183815 | 65 | 285 | 4.3 | 7.8 | 0.00 | 0.00 | 0.00 | 66 | 1018.7 |
| 20260504183313 | 65 | 239 | 3.5 | 7.8 | 0.00 | 0.00 | 0.00 | 64 | 1018.7 |
| 20260504182810 | 65 | 271 | 5.2 | 7.0 | 0.00 | 0.00 | 0.00 | 63 | 1018.7 |
| 20260504182308 | 65 | 260 | 1.7 | 6.1 | 0.00 | 0.00 | 0.00 | 63 | 1018.7 |
| 20260504181805 | 65 | 321 | 4.3 | 7.8 | 0.00 | 0.00 | 0.00 | 64 | 1018.7 |
| 20260504181302 | 66 | 315 | 2.6 | 9.6 | 0.00 | 0.00 | 0.00 | 63 | 1018.7 |
| 20260504180801 | 67 | 256 | 3.5 | 8.7 | 0.00 | 0.00 | 0.00 | 60 | 1018.7 |
| 20260504180259 | 66 | 93 | 1.7 | 7.8 | 0.00 | 0.00 | 0.00 | 63 | 1018.7 |
| 20260504175757 | 65 | 214 | 2.6 | 8.7 | 0.00 | 0.00 | 0.00 | 65 | 1018.7 |
| 20260504175253 | 64 | 188 | 2.6 | 7.0 | 0.00 | 0.00 | 0.00 | 65 | 1018.3 |
| 20260504174751 | 64 | 225 | 3.5 | 6.1 | 0.00 | 0.00 | 0.00 | 65 | 1018.7 |
| 20260504174249 | 64 | 315 | 2.6 | 8.7 | 0.00 | 0.00 | 0.00 | 65 | 1018.7 |
| 20260504173745 | 64 | 228 | 5.2 | 7.0 | 0.00 | 0.00 | 0.00 | 66 | 1018.7 |
| 20260504173242 | 64 | 282 | 5.2 | 8.7 | 0.00 | 0.00 | 0.00 | 65 | 1018.7 |
| 20260504172739 | 64 | 292 | 1.7 | 7.0 | 0.00 | 0.00 | 0.00 | 66 | 1018.3 |
| 20260504172236 | 65 | 257 | 3.5 | 7.0 | 0.00 | 0.00 | 0.00 | 66 | 1018.7 |
| 20260504171732 | 66 | 232 | 2.6 | 7.8 | 0.00 | 0.00 | 0.00 | 64 | 1018.7 |
| 20260504171229 | 65 | 11 | 0.9 | 6.1 | 0.00 | 0.00 | 0.00 | 63 | 1018.3 |
| 20260504170726 | 65 | 241 | 1.7 | 6.1 | 0.00 | 0.00 | 0.00 | 65 | 1018.3 |
| 20260504170223 | 65 | 321 | 3.5 | 7.0 | 0.00 | 0.00 | 0.00 | 65 | 1018.0 |
| 20260504160141 | 64 | 203 | 0.9 | 3.5 | 0.00 | 0.00 | 0.00 | 66 | 1017.6 |
| 20260504151109 | 63 | 193 | 0.0 | 1.7 | 0.00 | 0.00 | 0.00 | 66 | 1017.6 |
| 20260504150606 | 64 | 315 | 0.9 | 0.9 | 0.00 | 0.00 | 0.00 | 64 | 1017.6 |
| 20260504150103 | 65 | 347 | 0.0 | 0.9 | 0.00 | 0.00 | 0.00 | 65 | 1017.6 |
| 20260504141032 | 58 | 338 | 0.0 | 0.0 | 0.00 | 0.00 | 0.00 | 80 | 1017.6 |
| 20260504140528 | 58 | 323 | 0.0 | 1.7 | 0.00 | 0.00 | 0.00 | 80 | 1017.6 |
| 20260504130453 | 58 | 332 | 0.0 | 0.0 | 0.00 | 0.00 | 0.00 | 82 | 1017.0 |
| 20260504110340 | 58 | 333 | 0.0 | 0.0 | 0.00 | 0.00 | 0.00 | 84 | 1017.0 |
| 20260504100257 | 57 | 342 | 0.0 | 0.0 | 0.00 | 0.00 | 0.00 | 87 | 1017.0 |
| 20260504081651 | 59 | 328 | 0.9 | 2.6 | 0.00 | 0.00 | 0.00 | 82 | 1018.0 |
| 20260504081147 | 59 | 297 | 0.9 | 0.9 | 0.00 | 0.00 | 0.00 | 82 | 1018.0 |
| 20260504080643 | 59 | 303 | 1.7 | 2.6 | 0.00 | 0.00 | 0.00 | 82 | 1018.0 |
| 20260504080140 | 59 | 333 | 0.9 | 0.9 | 0.00 | 0.00 | 0.00 | 82 | 1018.0 |
| 20260504070108 | 60 | 337 | 0.9 | 1.7 | 0.00 | 0.00 | 0.00 | 79 | 1018.0 |